Home > Weather > Shawinigan > Past weeks

Flag for Canada Weather for the Past 2 Weeks in Shawinigan, Quebec, Canada

Now
53 °F

Cool.


Feels Like: 52 °F
Forecast: 37 / 59 °F
Wind: 5 mph from Southeast

Location: Shawinigan CS

Current Time: May 3, 2016 at 10:35:46 PM

Latest Report: May 3, 2016 at 7:00 PM


Visibility: N/A

Pressure: 29.86 "Hg

Humidity: 51%

Dew Point: 36 °F

Location of ShawiniganLocation

Historic Weather in Shawinigan — Graph

°F

Shawinigan Temperature Yesterday

Maximum temperature yesterday: 47 °F (at 3:00 PM)
Minimum temperature yesterday: 40 °F (at 3:00 AM)
Average temperature yesterday: 43 °F

High & Low Weather Summary for the Past Weeks

 TemperatureHumidityPressure
High65 °F (Apr 21, 2:00 PM)99% (May 2, 8:00 AM)30.36 "Hg (May 2, 8:00 AM)
Low22 °F (Apr 27, 6:00 AM)12% (Apr 30, 4:00 PM)29.76 "Hg (Apr 22, 3:00 PM)
Average41 °F45%30.06 "Hg
* Reported Apr 18 7:00 PM — May 3 7:00 PM, Shawinigan, Weather by CustomWeather, © 2016

Note: Actual official high and low records may vary slightly from our data, if they occured in-between our weather recording intervals... More about our weather records

Advertising

Shawinigan Weather History for the Previous 24 Hours

Scroll right to see more
 ConditionsComfort  
Time TempWeatherWind HumidityBarometerVisibility
7:00 PM
Tue, May 3
53 °FCool.5 mph51%29.86 "HgN/A
6:00 PM55 °FCool.5 mph48%29.86 "HgN/A
5:00 PM53 °FCool.8 mph51%29.87 "HgN/A
4:00 PM54 °FCool.5 mph50%29.87 "HgN/A
3:00 PM53 °FCool.7 mph53%29.87 "HgN/A
2:00 PM54 °FCool.6 mph49%29.88 "HgN/A
1:00 PM53 °FCool.6 mph50%29.89 "HgN/A
12:00 PM52 °FCool.6 mph57%29.92 "HgN/A
11:00 AM49 °FCool.5 mph64%29.94 "HgN/A
10:00 AM46 °FCool.3 mph69%29.94 "HgN/A
9:00 AM44 °FQuite cool.2 mph75%29.95 "HgN/A
8:00 AM40 °FQuite cool.No wind86%29.95 "HgN/A
7:00 AM38 °FChilly.6 mph87%29.95 "HgN/A
6:00 AM38 °FChilly.3 mph88%29.96 "HgN/A
5:00 AM40 °FChilly.No wind86%29.95 "HgN/A
4:00 AM40 °FQuite cool.1 mph86%29.96 "HgN/A
3:00 AM40 °FQuite cool.5 mph84%29.94 "HgN/A
2:00 AM41 °FQuite cool.5 mph77%29.96 "HgN/A
1:00 AM41 °FQuite cool.3 mph84%29.97 "HgN/A
12:00 AM40 °FQuite cool.5 mph89%29.97 "HgN/A
11:00 PM
Mon, May 2
42 °FQuite cool.7 mph83%29.98 "HgN/A
10:00 PM42 °FQuite cool.5 mph84%29.99 "HgN/A
Weather by CustomWeather, © 2016

See weather overviewHow to use our weather pages